| time (UTC) | temp C | wind direction | speed KPH | gust KPH | rain 1hr cm | rain 24hr cm | rain mn cm | humidity % | barometer mb |
| 20260504050509 | 17 | 86 | 0.0 | 9.7 | 0.00 | 0.00 | 0.00 | 74 | 1013.0 |
| 20260504050009 | 17 | 86 | 1.6 | 9.7 | 0.00 | 0.00 | 0.00 | 73 | 1013.0 |
| 20260504045509 | 17 | 97 | 0.0 | 6.4 | 0.00 | 0.00 | 0.00 | 73 | 1013.0 |
| 20260504045007 | 17 | 59 | 0.0 | 8.0 | 0.00 | 0.00 | 0.00 | 73 | 1012.9 |
| 20260504044508 | 17 | 34 | 1.6 | 8.0 | 0.00 | 0.00 | 0.00 | 72 | 1012.9 |
| 20260504044007 | 17 | 57 | 0.0 | 6.4 | 0.00 | 0.00 | 0.00 | 72 | 1012.8 |
| 20260504043507 | 17 | 37 | 0.0 | 6.4 | 0.00 | 0.00 | 0.00 | 71 | 1012.8 |
| 20260504043008 | 17 | 76 | 0.0 | 3.2 | 0.00 | 0.00 | 0.00 | 71 | 1012.7 |
| 20260504042507 | 17 | 92 | 0.0 | 0.0 | 0.00 | 0.00 | 0.00 | 71 | 1012.7 |
| 20260504042006 | 17 | 95 | 0.0 | 3.2 | 0.00 | 0.00 | 0.00 | 70 | 1012.6 |
| 20260504041507 | 17 | 95 | 0.0 | 4.8 | 0.00 | 0.00 | 0.00 | 70 | 1012.5 |
| 20260504041006 | 18 | 98 | 1.6 | 4.8 | 0.00 | 0.00 | 0.00 | 69 | 1012.3 |
| 20260504040506 | 18 | 77 | 0.0 | 6.4 | 0.00 | 0.00 | 0.00 | 69 | 1012.2 |
| 20260504040007 | 18 | 115 | 0.0 | 6.4 | 0.00 | 0.00 | 0.00 | 68 | 1012.2 |
| 20260504035508 | 18 | 85 | 1.6 | 4.8 | 0.00 | 0.00 | 0.00 | 68 | 1012.0 |
| 20260504035006 | 18 | 89 | 0.0 | 4.8 | 0.00 | 0.00 | 0.00 | 67 | 1011.7 |
| 20260504034512 | 18 | 100 | 0.0 | 8.0 | 0.00 | 0.00 | 0.00 | 67 | 1011.6 |
| 20260504034004 | 18 | 75 | 0.0 | 6.4 | 0.00 | 0.00 | 0.00 | 66 | 1011.5 |
| 20260504033505 | 19 | 97 | 1.6 | 6.4 | 0.00 | 0.00 | 0.00 | 65 | 1011.3 |
| 20260504033014 | 19 | 111 | 0.0 | 8.0 | 0.00 | 0.00 | 0.00 | 65 | 1011.2 |
| 20260504032505 | 20 | 131 | 1.6 | 8.0 | 0.00 | 0.00 | 0.00 | 64 | 1011.1 |
| 20260504032004 | 20 | 151 | 0.0 | 8.0 | 0.00 | 0.00 | 0.00 | 62 | 1011.0 |
| 20260504031507 | 20 | 88 | 1.6 | 9.7 | 0.00 | 0.00 | 0.00 | 61 | 1010.8 |
| 20260504031005 | 21 | 67 | 3.2 | 11.3 | 0.00 | 0.00 | 0.00 | 59 | 1010.5 |
| 20260504030504 | 21 | 104 | 4.8 | 11.3 | 0.00 | 0.00 | 0.00 | 58 | 1010.4 |
| 20260504030002 | 21 | 103 | 0.0 | 8.0 | 0.00 | 0.00 | 0.00 | 58 | 1010.1 |
| 20260504025502 | 21 | 309 | 0.0 | 6.4 | 0.00 | 0.00 | 0.00 | 57 | 1009.9 |
| 20260504025002 | 22 | 257 | 0.0 | 4.8 | 0.00 | 0.00 | 0.00 | 57 | 1009.8 |
| 20260504024504 | 22 | 136 | 0.0 | 4.8 | 0.00 | 0.00 | 0.00 | 56 | 1009.7 |
| 20260504024004 | 22 | 89 | 0.0 | 6.4 | 0.00 | 0.00 | 0.00 | 55 | 1009.4 |
| 20260504023501 | 22 | 349 | 0.0 | 6.4 | 0.00 | 0.00 | 0.00 | 54 | 1009.3 |
| 20260504023002 | 22 | 251 | 0.0 | 6.4 | 0.00 | 0.00 | 0.00 | 53 | 1009.2 |
| 20260504022501 | 22 | 221 | 0.0 | 6.4 | 0.00 | 0.00 | 0.00 | 54 | 1009.1 |
| 20260504022003 | 22 | 231 | 1.6 | 14.5 | 0.00 | 0.00 | 0.00 | 55 | 1009.2 |
| 20260504021500 | 22 | 214 | 0.0 | 14.5 | 0.00 | 0.00 | 0.00 | 56 | 1008.9 |
| 20260504021000 | 22 | 172 | 4.8 | 14.5 | 0.00 | 0.00 | 0.00 | 56 | 1008.8 |
| 20260504020500 | 22 | 181 | 1.6 | 12.9 | 0.00 | 0.00 | 0.00 | 55 | 1008.8 |
| 20260504020100 | 23 | 247 | 1.6 | 12.9 | 0.00 | 0.00 | 0.00 | 53 | 1008.7 |
| 20260504015600 | 23 | 195 | 1.6 | 14.5 | 0.00 | 0.00 | 0.00 | 52 | 1008.4 |
| 20260504015100 | 24 | 163 | 4.8 | 11.3 | 0.00 | 0.00 | 0.00 | 50 | 1008.2 |
| 20260504014601 | 25 | 281 | 4.8 | 11.3 | 0.00 | 0.00 | 0.00 | 47 | 1008.1 |
| 20260504014059 | 25 | 251 | 4.8 | 11.3 | 0.00 | 0.00 | 0.00 | 45 | 1007.9 |
| 20260504013559 | 26 | 259 | 4.8 | 11.3 | 0.00 | 0.00 | 0.00 | 40 | 1007.9 |
| 20260504013112 | 26 | 115 | 0.0 | 0.0 | 0.00 | 0.00 | 0.00 | 36 | 1007.7 |
| 20260504012600 | 26 | 115 | 0.0 | 0.0 | 0.00 | 0.00 | 0.00 | 36 | 1007.6 |
| 20260504012101 | 26 | 115 | 0.0 | 0.0 | 0.00 | 0.00 | 0.00 | 35 | 1007.5 |
| 20260504011558 | 27 | 115 | 0.0 | 1.6 | 0.00 | 0.00 | 0.00 | 34 | 1007.5 |
| 20260504011058 | 27 | 77 | 0.0 | 1.6 | 0.00 | 0.00 | 0.00 | 34 | 1007.3 |
| 20260504010559 | 27 | 119 | 0.0 | 1.6 | 0.00 | 0.00 | 0.00 | 33 | 1007.3 |
| 20260504005558 | 28 | 119 | 0.0 | 1.6 | 0.00 | 0.00 | 0.00 | 33 | 1007.1 |
| 20260504005058 | 28 | 119 | 0.0 | 6.4 | 0.00 | 0.00 | 0.00 | 33 | 1007.0 |
| 20260504004621 | 28 | 110 | 0.0 | 6.4 | 0.00 | 0.00 | 0.00 | 33 | 1007.0 |
| 20260504004057 | 28 | 90 | 0.0 | 6.4 | 0.00 | 0.00 | 0.00 | 33 | 1006.9 |
| 20260504003557 | 28 | 117 | 0.0 | 6.4 | 0.00 | 0.00 | 0.00 | 33 | 1007.0 |
| 20260504003102 | 28 | 100 | 1.6 | 6.4 | 0.00 | 0.00 | 0.00 | 32 | 1006.9 |
| 20260504002556 | 28 | 135 | 0.0 | 6.4 | 0.00 | 0.00 | 0.00 | 32 | 1006.9 |
| 20260504002059 | 29 | 110 | 0.0 | 8.0 | 0.00 | 0.00 | 0.00 | 31 | 1006.8 |
| 20260504001601 | 29 | 84 | 1.6 | 14.5 | 0.00 | 0.00 | 0.00 | 31 | 1006.8 |
| 20260504001100 | 29 | 125 | 1.6 | 14.5 | 0.00 | 0.00 | 0.00 | 29 | 1006.6 |
| 20260504000556 | 29 | 96 | 1.6 | 12.9 | 0.00 | 0.00 | 0.00 | 30 | 1006.6 |
| 20260504000055 | 30 | 102 | 4.8 | 12.9 | 0.00 | 0.00 | 0.00 | 30 | 1006.6 |
| 20260503235555 | 30 | 113 | 1.6 | 17.7 | 0.00 | 0.00 | 0.00 | 30 | 1006.4 |
| 20260503235058 | 30 | 67 | 8.0 | 17.7 | 0.00 | 0.00 | 0.00 | 29 | 1006.5 |
| 20260503234554 | 30 | 131 | 6.4 | 12.9 | 0.00 | 0.00 | 0.00 | 29 | 1006.4 |
| 20260503234054 | 30 | 37 | 1.6 | 9.7 | 0.00 | 0.00 | 0.00 | 29 | 1006.4 |
| 20260503233554 | 30 | 94 | 0.0 | 9.7 | 0.00 | 0.00 | 0.00 | 29 | 1006.4 |
| 20260503233055 | 30 | 108 | 1.6 | 9.7 | 0.00 | 0.00 | 0.00 | 29 | 1006.5 |
| 20260503232554 | 30 | 63 | 1.6 | 9.7 | 0.00 | 0.00 | 0.00 | 29 | 1006.5 |
| 20260503232056 | 30 | 27 | 1.6 | 12.9 | 0.00 | 0.00 | 0.00 | 30 | 1006.5 |
| 20260503231556 | 30 | 75 | 3.2 | 12.9 | 0.00 | 0.00 | 0.00 | 30 | 1006.5 |
| 20260503231057 | 29 | 285 | 3.2 | 12.9 | 0.00 | 0.00 | 0.00 | 28 | 1006.4 |
| 20260503230553 | 29 | 91 | 1.6 | 12.9 | 0.00 | 0.00 | 0.00 | 28 | 1006.5 |
| 20260503230053 | 30 | 191 | 0.0 | 12.9 | 0.00 | 0.00 | 0.00 | 28 | 1006.5 |
| 20260503225551 | 30 | 143 | 4.8 | 12.9 | 0.00 | 0.00 | 0.00 | 28 | 1006.5 |
| 20260503225051 | 30 | 110 | 0.0 | 8.0 | 0.00 | 0.00 | 0.00 | 27 | 1006.5 |
| 20260503224550 | 30 | 294 | 1.6 | 11.3 | 0.00 | 0.00 | 0.00 | 28 | 1006.7 |
| 20260503224049 | 30 | 95 | 0.0 | 12.9 | 0.00 | 0.00 | 0.00 | 29 | 1006.7 |
| 20260503223549 | 30 | 93 | 0.0 | 19.3 | 0.00 | 0.00 | 0.00 | 29 | 1006.8 |
| 20260503223049 | 31 | 56 | 6.4 | 19.3 | 0.00 | 0.00 | 0.00 | 29 | 1006.7 |
| 20260503222549 | 31 | 70 | 6.4 | 19.3 | 0.00 | 0.00 | 0.00 | 29 | 1006.8 |
| 20260503222050 | 30 | 65 | 1.6 | 11.3 | 0.00 | 0.00 | 0.00 | 28 | 1006.7 |
| 20260503221552 | 30 | 94 | 0.0 | 11.3 | 0.00 | 0.00 | 0.00 | 28 | 1006.9 |
| 20260503221052 | 30 | 121 | 3.2 | 19.3 | 0.00 | 0.00 | 0.00 | 27 | 1007.0 |
| 20260503220547 | 30 | 46 | 1.6 | 19.3 | 0.00 | 0.00 | 0.00 | 27 | 1007.0 |
| 20260503220046 | 31 | 49 | 9.7 | 19.3 | 0.00 | 0.00 | 0.00 | 27 | 1007.0 |
| 20260503215546 | 31 | 110 | 1.6 | 14.5 | 0.00 | 0.00 | 0.00 | 28 | 1007.0 |
| 20260503215044 | 30 | 50 | 1.6 | 14.5 | 0.00 | 0.00 | 0.00 | 27 | 1007.0 |
| 20260503214542 | 30 | 56 | 3.2 | 14.5 | 0.00 | 0.00 | 0.00 | 29 | 1007.2 |
| 20260503214042 | 30 | 314 | 6.4 | 14.5 | 0.00 | 0.00 | 0.00 | 31 | 1007.2 |
| 20260503213542 | 29 | 354 | 3.2 | 14.5 | 0.00 | 0.00 | 0.00 | 31 | 1007.2 |
| 20260503213044 | 30 | 293 | 0.0 | 12.9 | 0.00 | 0.00 | 0.00 | 30 | 1007.3 |
| 20260503212541 | 30 | 69 | 3.2 | 17.7 | 0.00 | 0.00 | 0.00 | 31 | 1007.5 |
| 20260503212042 | 30 | 23 | 3.2 | 17.7 | 0.00 | 0.00 | 0.00 | 31 | 1007.6 |
| 20260503211542 | 30 | 243 | 4.8 | 12.9 | 0.00 | 0.00 | 0.00 | 30 | 1007.7 |
| 20260503211042 | 30 | 70 | 1.6 | 11.3 | 0.00 | 0.00 | 0.00 | 30 | 1007.7 |
| 20260503210538 | 30 | 62 | 1.6 | 14.5 | 0.00 | 0.00 | 0.00 | 30 | 1007.8 |
| 20260503210037 | 30 | 144 | 0.0 | 14.5 | 0.00 | 0.00 | 0.00 | 30 | 1007.9 |
| 20260503205536 | 30 | 333 | 3.2 | 11.3 | 0.00 | 0.00 | 0.00 | 31 | 1008.0 |
| 20260503205035 | 30 | 84 | 1.6 | 11.3 | 0.00 | 0.00 | 0.00 | 30 | 1008.1 |
| 20260503204534 | 31 | 32 | 1.6 | 11.3 | 0.00 | 0.00 | 0.00 | 31 | 1008.2 |
| 20260503204033 | 30 | 175 | 0.0 | 16.1 | 0.00 | 0.00 | 0.00 | 31 | 1008.2 |
| 20260503203536 | 30 | 352 | 6.4 | 16.1 | 0.00 | 0.00 | 0.00 | 32 | 1008.6 |
| 20260503203032 | 30 | 155 | 4.8 | 19.3 | 0.00 | 0.00 | 0.00 | 32 | 1008.6 |
| 20260503202531 | 30 | 77 | 6.4 | 19.3 | 0.00 | 0.00 | 0.00 | 32 | 1008.8 |
| 20260503202034 | 30 | 249 | 4.8 | 24.1 | 0.00 | 0.00 | 0.00 | 31 | 1009.0 |
| 20260503201530 | 30 | 89 | 8.0 | 24.1 | 0.00 | 0.00 | 0.00 | 31 | 1008.9 |
| 20260503201028 | 30 | 18 | 3.2 | 16.1 | 0.00 | 0.00 | 0.00 | 33 | 1008.9 |
| 20260503200528 | 30 | 159 | 0.0 | 16.1 | 0.00 | 0.00 | 0.00 | 33 | 1009.0 |
| 20260503200026 | 30 | 51 | 6.4 | 22.5 | 0.00 | 0.00 | 0.00 | 33 | 1009.0 |
| 20260503195526 | 30 | 131 | 6.4 | 22.5 | 0.00 | 0.00 | 0.00 | 34 | 1009.1 |
| 20260503195024 | 30 | 78 | 3.2 | 14.5 | 0.00 | 0.00 | 0.00 | 36 | 1009.2 |
| 20260503194523 | 30 | 124 | 0.0 | 8.0 | 0.00 | 0.00 | 0.00 | 36 | 1009.3 |
| 20260503194021 | 29 | 139 | 0.0 | 9.7 | 0.00 | 0.00 | 0.00 | 37 | 1009.3 |
| 20260503193520 | 28 | 135 | 1.6 | 9.7 | 0.00 | 0.00 | 0.00 | 39 | 1009.4 |
| 20260503193034 | 28 | 150 | 1.6 | 14.5 | 0.00 | 0.00 | 0.00 | 38 | 1009.4 |
| 20260503192518 | 28 | 71 | 6.4 | 14.5 | 0.00 | 0.00 | 0.00 | 38 | 1009.6 |
| 20260503192018 | 28 | 138 | 6.4 | 12.9 | 0.00 | 0.00 | 0.00 | 40 | 1009.6 |
| 20260503191517 | 28 | 91 | 3.2 | 14.5 | 0.00 | 0.00 | 0.00 | 41 | 1009.7 |
| 20260503191018 | 28 | 99 | 8.0 | 19.3 | 0.00 | 0.00 | 0.00 | 42 | 1009.8 |
| 20260503190517 | 28 | 245 | 0.0 | 14.5 | 0.00 | 0.00 | 0.00 | 41 | 1009.9 |
| 20260503190024 | 27 | 173 | 3.2 | 14.5 | 0.00 | 0.00 | 0.00 | 42 | 1009.9 |
| 20260503185514 | 27 | 121 | 3.2 | 16.1 | 0.00 | 0.00 | 0.00 | 42 | 1010.0 |
| 20260503185013 | 28 | 78 | 8.0 | 16.1 | 0.00 | 0.00 | 0.00 | 42 | 1010.1 |
| 20260503184613 | 27 | 55 | 3.2 | 12.9 | 0.00 | 0.00 | 0.00 | 44 | 1010.2 |
| 20260503184012 | 27 | 75 | 3.2 | 12.9 | 0.00 | 0.00 | 0.00 | 44 | 1010.5 |
| 20260503183512 | 27 | 103 | 1.6 | 9.7 | 0.00 | 0.00 | 0.00 | 45 | 1010.6 |
| 20260503183010 | 27 | 125 | 0.0 | 12.9 | 0.00 | 0.00 | 0.00 | 46 | 1010.7 |
| 20260503182514 | 26 | 127 | 3.2 | 12.9 | 0.00 | 0.00 | 0.00 | 47 | 1010.8 |
| 20260503182014 | 26 | 87 | 3.2 | 9.7 | 0.00 | 0.00 | 0.00 | 47 | 1011.0 |
| 20260503181507 | 26 | 105 | 0.0 | 16.1 | 0.00 | 0.00 | 0.00 | 47 | 1011.1 |
| 20260503181009 | 26 | 87 | 3.2 | 16.1 | 0.00 | 0.00 | 0.00 | 49 | 1011.2 |
| 20260503180508 | 26 | 78 | 1.6 | 12.9 | 0.00 | 0.00 | 0.00 | 48 | 1011.4 |
| 20260503180006 | 26 | 105 | 3.2 | 12.9 | 0.00 | 0.00 | 0.00 | 48 | 1011.5 |
| 20260503175506 | 26 | 130 | 0.0 | 11.3 | 0.00 | 0.00 | 0.00 | 50 | 1011.6 |
| 20260503175004 | 25 | 163 | 1.6 | 11.3 | 0.00 | 0.00 | 0.00 | 49 | 1011.6 |
| 20260503174504 | 25 | 117 | 0.0 | 11.3 | 0.00 | 0.00 | 0.00 | 50 | 1011.9 |
| 20260503174004 | 25 | 66 | 4.8 | 11.3 | 0.00 | 0.00 | 0.00 | 51 | 1011.9 |
| 20260503173606 | 25 | 341 | 0.0 | 11.3 | 0.00 | 0.00 | 0.00 | 52 | 1012.1 |
| 20260503173007 | 25 | 86 | 3.2 | 11.3 | 0.00 | 0.00 | 0.00 | 54 | 1012.2 |
| 20260503172503 | 25 | 75 | 0.0 | 6.4 | 0.00 | 0.00 | 0.00 | 54 | 1012.4 |
| 20260503172001 | -17 | 0.0 | 0.0 | 0.00 | 0.00 | 0.00 | 1012.6 | ||
| 20260503171501 | -17 | 0.0 | 0.0 | 0.00 | 0.00 | 0.00 | 1012.7 | ||
| 20260503171001 | -17 | 0.0 | 0.0 | 0.00 | 0.00 | 0.00 | 1012.8 | ||
| 20260503170600 | -17 | 0.0 | 0.0 | 0.00 | 0.00 | 0.00 | 1012.8 | ||
| 20260503170103 | -17 | 0.0 | 0.0 | 0.00 | 0.00 | 0.00 | 1012.8 | ||
| 20260503160108 | -17 | 0.0 | 0.0 | 0.00 | 0.00 | 0.00 | 1013.4 | ||
| 20260503150544 | -17 | 0.0 | 0.0 | 0.00 | 0.00 | 0.00 | 1013.5 | ||
| 20260503140126 | -17 | 0.0 | 0.0 | 0.00 | 0.00 | 0.00 | 1012.9 |